FW0059 Weather Reports


time (UTC)temp
F
wind
direction
speed
knots
gust
knots
rain 1hr
in
rain 24hr
in
rain mn
in
humidity
%
barometer
mb
20260906143034 85 301 0.0 0.0 0.00 0.00 0.00 81 1012.1
20260906141526 83 301 0.0 0.0 0.00 0.00 0.00 83 1012.1
20260906140018 82 301 0.0 0.0 0.00 0.00 0.00 83 1012.3
20260906134522 82 301 0.0 0.0 0.00 0.00 0.00 83 1012.4
20260906133010 81 301 0.0 0.0 0.00 0.00 0.00 83 1012.4
20260906131538 80 301 0.0 0.0 0.00 0.00 0.00 83 1012.5
20260906130037 0 0.0 0.0 0.00 0.00 0.00 1012.3
20260906124542 0 0.0 0.0 0.00 0.00 0.00 1012.4
20260906123105 0 0.0 0.0 0.00 0.00 0.00 1012.2
20260906121536 0 0.0 0.0 0.00 0.00 0.00 1012.2
20260906120032 0 0.0 0.0 0.00 0.00 0.00 1012.2
20260906114530 0 0.0 0.0 0.00 0.00 0.00 1012.1
20260906113032 0 0.0 0.0 0.00 0.00 0.00 1012.1
20260906111531 0 0.0 0.0 0.00 0.00 0.00 1012.0
20260906110029 0 0.0 0.0 0.00 0.00 0.00 1012.0
20260906104531 0 0.0 0.0 0.00 0.00 0.00 1011.9
20260906103027 0 0.0 0.0 0.00 0.00 0.00 1011.8
20260906101526 0 0.0 0.0 0.00 0.00 0.00 1011.7
20260906100027 0 0.0 0.0 0.00 0.00 0.00 1011.6
20260906094524 0 0.0 0.0 0.00 0.00 0.00 1011.4
20260906093024 0 0.0 0.0 0.00 0.00 0.00 1011.2
20260906091523 0 0.0 0.0 0.00 0.00 0.00 1010.9
20260906090018 0 0.0 0.0 0.00 0.00 0.00 1010.8
20260906084614 0 0.0 0.0 0.00 0.00 0.00 1010.9
20260906083040 0 0.0 0.0 0.00 0.00 0.00 1010.9
20260906081536 0 0.0 0.0 0.00 0.00 0.00 1010.9
20260906080031 77 301 0.0 0.0 0.00 0.00 0.00 80 1010.7
20260906074528 77 301 0.0 0.0 0.00 0.00 0.00 81 1010.8
20260906073026 78 301 0.0 0.0 0.00 0.00 0.00 81 1010.9
20260906071525 78 301 0.0 0.0 0.00 0.00 0.00 81 1010.9
20260906070023 78 301 0.0 0.0 0.00 0.00 0.00 82 1010.9
20260906064522 78 301 0.0 0.0 0.00 0.00 0.00 83 1011.0
20260906063021 78 301 0.0 0.0 0.00 0.00 0.00 83 1011.1
20260906061519 78 301 0.0 0.0 0.00 0.00 0.00 83 1011.4
20260906060008 79 301 0.0 0.0 0.00 0.00 0.00 83 1011.7
20260906054508 79 301 0.0 0.0 0.00 0.00 0.00 83 1011.7
20260906053006 79 301 0.0 0.0 0.00 0.00 0.00 83 1011.9
20260906050007 79 301 0.0 0.0 0.00 0.00 0.00 83 1011.9
20260906044505 80 301 0.0 0.0 0.00 0.00 0.00 83 1011.5
20260906043005 80 301 0.0 0.0 0.00 0.00 0.00 83 1011.4
20260906040003 81 301 0.0 0.0 0.00 0.00 0.00 83 1011.5
20260906034501 80 301 0.0 0.0 0.00 0.00 0.00 83 1012.0
20260906033001 81 301 0.0 0.0 0.00 0.00 0.00 83 1012.3
20260906031701 81 301 0.0 0.0 0.00 0.00 0.00 83 1012.2
20260906030039 81 301 0.0 0.0 0.00 0.00 0.00 83 1012.0
20260906024544 81 301 0.0 0.0 0.00 0.00 0.00 83 1012.0
20260906023047 81 301 0.0 0.0 0.00 0.00 0.00 83 1012.0
20260906021534 81 301 0.0 0.0 0.00 0.00 0.00 83 1012.0
20260906020037 81 301 0.0 0.0 0.00 0.00 0.00 83 1011.6
20260906014533 81 301 0.0 0.0 0.00 0.00 0.00 82 1011.3
20260906013040 81 301 0.0 0.0 0.00 0.00 0.00 82 1011.1
20260906011529 82 301 0.0 0.0 0.00 0.00 0.00 82 1010.5
20260906010028 82 301 0.0 0.0 0.00 0.00 0.00 82 1010.2
20260906004528 82 301 0.0 0.0 0.00 0.00 0.00 81 1010.2
20260906003025 83 301 0.0 0.0 0.00 0.00 0.00 80 1010.0
20260906001524 83 301 0.0 0.0 0.00 0.00 0.00 79 1010.0
20260906000036 84 301 0.0 0.0 0.00 0.00 0.00 80 1010.1
20260905234520 85 301 0.0 0.0 0.00 0.00 0.00 78 1010.2
20260905233020 85 301 0.0 0.0 0.00 0.00 0.00 78 1010.5
20260905231518 85 301 0.0 0.0 0.00 0.00 0.00 79 1010.2
20260905230016 86 301 0.0 0.0 0.00 0.00 0.00 78 1010.3
20260905224516 86 301 0.0 0.0 0.00 0.00 0.00 78 1010.5
20260905223014 86 301 0.0 0.0 0.00 0.00 0.00 76 1010.5
20260905221513 86 301 0.0 0.0 0.00 0.00 0.00 76 1010.4
20260905220013 86 301 0.0 0.0 0.00 0.00 0.00 77 1010.4
20260905214512 87 301 0.0 0.0 0.00 0.00 0.00 77 1010.5
20260905213041 87 301 0.0 0.0 0.00 0.00 0.00 75 1010.5
20260905211550 88 301 0.0 0.0 0.00 0.00 0.00 74 1010.7
20260905210034 89 301 0.0 0.0 0.00 0.00 0.00 74 1011.0
20260905204537 89 301 0.0 0.0 0.00 0.00 0.00 73 1011.2
20260905203031 90 301 0.0 0.0 0.00 0.00 0.00 74 1011.5
20260905201529 90 301 0.0 0.0 0.00 0.00 0.00 75 1011.6
20260905200029 90 301 0.0 0.0 0.00 0.00 0.00 73 1011.8
20260905194524 90 301 0.0 0.0 0.00 0.00 0.00 72 1012.0
20260905193022 91 301 0.0 0.0 0.00 0.00 0.00 76 1012.2
20260905191519 90 301 0.0 0.0 0.00 0.00 0.00 75 1012.5
20260905190016 90 301 0.0 0.0 0.00 0.00 0.00 72 1012.6
20260905184540 90 301 0.0 0.0 0.00 0.00 0.00 74 1012.4
20260905183029 88 301 0.0 0.0 0.00 0.00 0.00 78 1012.8
20260905181508 87 301 0.0 0.0 0.00 0.00 0.00 82 1013.1
20260905180003 86 301 0.0 0.0 0.00 0.00 0.00 82 1013.1
20260905174600 87 301 0.0 0.0 0.00 0.00 0.00 81 1013.6
20260905173106 85 301 0.0 0.0 0.00 0.00 0.00 69 1013.9
20260905171601 84 301 0.0 0.0 0.00 0.00 0.00 56 1014.0
20260905170051 84 301 0.0 0.0 0.00 0.00 0.00 57 1014.0
20260905164550 84 301 0.0 0.0 0.00 0.00 0.00 57 1014.1
20260905163047 85 301 0.0 0.0 0.00 0.00 0.00 58 1014.2
20260905161547 84 301 0.0 0.0 0.00 0.00 0.00 58 1014.4
20260905160043 83 301 0.0 0.0 0.00 0.00 0.00 60 1014.4
20260905154508 81 301 0.0 0.0 0.00 0.00 0.00 59 1014.4
20260905153006 82 301 0.0 0.0 0.00 0.00 0.00 60 1014.5
20260905151504 81 301 0.0 0.0 0.00 0.00 0.00 60 1014.5
20260905150004 80 301 0.0 0.0 0.00 0.00 0.00 61 1014.4
20260905144505 79 301 0.0 0.0 0.00 0.00 0.00 61 1014.5